Regional Weather Roundup
Issued by NWS

Home | Current Version | Previous Version | Text Only | Print | Product List | Glossary On
Versions: 1 2 3 4 5 6 7 8 9 10 11 12 13 14 15 16 17 18 19 20 21 22 23 24 25 26 27 28 29 30 31 32 33 34 35 36 37 38 39 40 41 42 43 44 45 46 47 48 49 50
000
ASUS43 KDMX 221007
RWRIA

WEATHER ROUNDUP FOR IOWA
NATIONAL WEATHER SERVICE DES MOINES IA
400 AM CST MON DEC 22 2014

NOTE: "FAIR" INDICATES FEW OR NO CLOUDS BELOW 12,000 FEET WITH NO
SIGNIFICANT WEATHER AND/OR OBSTRUCTIONS TO VISIBILITY.

* - THESE STATIONS ARE NOT NWS STATIONS...THUS NOT UNDER NWS
QUALITY CONTROL.  THEY ALSO DO NOT REPORT WEATHER SUCH
AS PRECIPITATION OR FOG.

IAZ001>003-012>014-020>022-031>034-043>046-221100-
   NORTHWEST IOWA

CITY           SKY/WX    TMP DP  RH WIND       PRES   REMARKS
CARROLL *      CLOUDY    41  41 100 S15       29.61F FOG
CHEROKEE *     DRIZZLE   41  41 100 S12       29.56F
DENISON *      MIX PCPN  41  41 100 S16G23    29.56F
LE MARS *      CLOUDY    43  43 100 S14G20    29.53F
ORANGE CITY *  DRIZZLE   41  39  93 S9        29.53F
SHELDON *      CLOUDY    39  39 100 S17       29.53F FOG     WCI  30
SIOUX CITY     LGT RAIN  43  41  93 SE12      29.53F FOG
SPENCER        CLOUDY    40  38  93 S17       29.57F FOG     WCI  31
STORM LAKE *   CLOUDY    39  39 100 S16       29.57F FOG     WCI  30
$$

IAZ055>058-069>071-079>083-090>094-221100-
   SOUTHWEST IOWA

CITY           SKY/WX    TMP DP  RH WIND       PRES   REMARKS
ATLANTIC *     CLOUDY    41  41 100 S12G20    29.61F FOG
AUDUBON *      DRIZZLE   39  36  87 S13       29.62F WCI  32
CLARINDA *     CLOUDY    41  39  93 S7G16     29.64F
COUNCIL BLFS * MIX PCPN  43  43 100 S13G18    29.57F
CRESTON *      CLOUDY    39  39 100 S12G21    29.65F WCI  32
HARLAN  *      CLOUDY    41  41 100 S13G20    29.62F FOG
LAMONI         CLOUDY    40  37  89 S12G22    29.67F WCI  33
RED OAK *      CLOUDY    41  41 100 S14G21    29.61F FOG
SHENANDOAH *   CLOUDY    43  41  93 SE13G20   29.61F FOG
$$

IAZ047>049-059>061-072>074-084-221100-
   CENTRAL IOWA

CITY           SKY/WX    TMP DP  RH WIND       PRES   REMARKS
AMES           CLOUDY    40  37  89 SE14      29.68F WCI  32
ANKENY *       CLOUDY    41  39  93 S12       29.69F
CHARITON *     CLOUDY    39  37  93 SE12G20   29.69F WCI  32
DES MOINES     CLOUDY    41  38  89 S14       29.69F
GRINNELL*      LGT RAIN  37  36  93 SE15      29.73F WCI  28
KNOXVILLE *    CLOUDY    39  37  93 SE14      29.69F WCI  31
MARSHALLTOWN   CLOUDY    37  36  96 SE14      29.71F WCI  28
PELLA *        RAIN      39  37  93 SE12G17   29.73F WCI  32
PERRY *        CLOUDY    41  39  93 S15       29.65F FOG
$$

IAZ004>006-015-016-023>025-035-036-221100-
   NORTH CENTRAL IOWA

CITY           SKY/WX    TMP DP  RH WIND       PRES   REMARKS
ALGONA *       CLOUDY    39  30  70 S16       29.63S HAZE    WCI  30
CLARION *      CLOUDY    39  39 100 SE18      29.65F FOG     WCI  30
ESTHERVILLE    CLOUDY    38  38 100 S18       29.58F FOG     WCI  28
FORT DODGE *   CLOUDY    39  37  93 S14       29.64F WCI  31
MASON CITY     CLOUDY    37  36  96 S15       29.69S FOG     WCI  28
FOREST CITY *  CLOUDY    37  36  93 SE15      29.66S FOG     WCI  28
IOWA FALLS *   DRIZZLE   37  37 100 SE15G21   29.69F WCI  28
$$

IAZ007>011-017>019-026>030-037>042-050>054-066-221100-
   NORTHEAST IOWA

CITY           SKY/WX    TMP DP  RH WIND       PRES   REMARKS
CEDAR RAPIDS   CLOUDY    36  34  92 SE13      29.77F WCI  27
CHARLES CITY * CLOUDY    36  36 100 SE17      29.72F FOG     WCI  25
CLINTON *      CLOUDY    34  30  86 SE13      29.88F WCI  25
DECORAH *      CLOUDY    34  34 100 SE10G18   29.76F FOG     WCI  26
DUBUQUE        MOCLDY    33  31  92 S13       29.82F FOG     WCI  24
MONTICELLO *   CLOUDY    34  34 100 SE9       29.81F FOG     WCI  26
OELWEIN *      CLOUDY    36  34  93 SE18      29.77F FOG     WCI  25
WATERLOO       CLOUDY    37  35  92 SE14      29.74F WCI  28
$$

IAZ064-065-067-068-078-221100-
   EAST CENTRAL IOWA

CITY           SKY/WX    TMP DP  RH WIND       PRES   REMARKS
DAVENPORT      CLOUDY    36  30  79 SE15      29.84F WCI  27
IOWA CITY      CLOUDY    36  33  89 SE8       29.81F WCI  30
MT. PLEASANT * CLOUDY    37  32  81 SE13      29.79F WCI  29
MUSCATINE *    CLOUDY    39  32  75 SE8       29.82F WCI  34
QUAD CITIES    CLOUDY    36  31  82 S15       29.84F WCI  27
$$

IAZ062-063-075>077-085>089-095>099-221100-
   SOUTHEAST IOWA

CITY           SKY/WX    TMP DP  RH WIND       PRES   REMARKS
BURLINGTON     LGT RAIN  39  33  79 SE12      29.81F WCI  32
FAIRFIELD *    CLOUDY    39  34  81 SE13      29.77F WCI  32
FORT MADISON * CLOUDY    39  36  87 SE7       29.81F WCI  34
KEOKUK *       CLOUDY    39  34  81 SE10      29.79F WCI  32
OSKALOOSA *    CLOUDY    37  36  93 SE13      29.74F WCI  29
CENTERVILLE *  CLOUDY    37  37 100 SE12      29.73F WCI  30
OTTUMWA        CLOUDY    39  34  82 SE13      29.74F WCI  31
WASHINGTON *   CLOUDY    37  37 100 SE12      29.78F WCI  30
$$

ABBREVIATIONS USED IN REMARKS
   TC - TEMPERATURES IN CELSIUS
  WCI - WIND CHILL INDEX
   HX - HEAT INDEX
  VSB - VISIBILITY
$$



USA.gov is the U.S. government's official web portal to all federal, state and local government web resources and services.